timestamp,surface_pressure_avg,surface_temp_avg,battery_voltage,lat,long
2017-11-17 00:00:00+00:00,348.5813,8.09,12.97,47.84626,-54.09684
2017-11-17 00:10:00+00:00,343.6796,8.06,12.89,47.84626,-54.09684
2017-11-17 00:20:00+00:00,338.993,8.04,12.97,47.84626,-54.09684
2017-11-17 00:30:00+00:00,332.1797,8.0,12.97,47.84626,-54.09684
2017-11-17 00:40:00+00:00,325.8047,8.0,13.05,47.84626,-54.09684
2017-11-17 00:50:00+00:00,322.2047,8.0,13.05,47.84626,-54.09684
2017-11-17 01:00:00+00:00,317.313,8.0,12.97,47.84626,-54.09684
2017-11-17 01:10:00+00:00,304.8463,8.0,12.89,47.84626,-54.09684
2017-11-17 01:20:00+00:00,299.248,8.0,12.97,47.84626,-54.09684
2017-11-17 01:30:00+00:00,294.6964,7.99,12.97,47.84626,-54.09684
2017-11-17 01:40:00+00:00,282.0714,7.9,12.97,47.84626,-54.09684
2017-11-17 01:50:00+00:00,268.9314,7.9,12.97,47.84626,-54.09684
2017-11-17 02:00:00+00:00,265.6214,7.89,12.97,47.84626,-54.09684
2017-11-17 02:10:00+00:00,259.3564,7.8,12.89,47.84626,-54.09684
2017-11-17 02:20:00+00:00,246.7365,7.4,12.97,47.84626,-54.09684
2017-11-17 02:30:00+00:00,236.3081,7.3,12.97,47.84626,-54.09684
2017-11-17 02:40:00+00:00,233.3914,7.3,12.97,47.84626,-54.09684
2017-11-17 02:50:00+00:00,228.9948,7.4,12.97,47.84626,-54.09684
2017-11-17 03:00:00+00:00,218.4731,7.2,12.89,47.84626,-54.09684
2017-11-17 03:10:00+00:00,213.6581,7.1,12.81,47.84626,-54.09684
2017-11-17 03:20:00+00:00,212.8831,7.1,12.97,47.84626,-54.09684
2017-11-17 03:30:00+00:00,209.9648,7.1,12.97,47.84626,-54.09684
2017-11-17 03:40:00+00:00,209.3515,7.1,12.97,47.84626,-54.09684
2017-11-17 03:50:00+00:00,209.1997,7.2,12.97,47.84626,-54.09684
2017-11-17 04:00:00+00:00,204.2564,7.05,12.89,47.84626,-54.09684
2017-11-17 04:10:00+00:00,198.7348,7.07,12.81,47.84626,-54.09684
2017-11-17 04:20:00+00:00,199.3564,7.43,12.89,47.84626,-54.09684
2017-11-17 04:30:00+00:00,198.6381,7.5,12.89,47.84626,-54.09684
2017-11-17 04:40:00+00:00,199.5514,7.51,12.97,47.84626,-54.09684
2017-11-17 04:50:00+00:00,205.8381,7.6,12.97,47.84626,-54.09684
2017-11-17 05:00:00+00:00,206.5448,7.6,12.89,47.84626,-54.09684
2017-11-17 05:10:00+00:00,203.0881,7.4,12.81,47.84626,-54.09684
2017-11-17 05:20:00+00:00,205.3297,7.63,12.89,47.84626,-54.09684
2017-11-17 05:30:00+00:00,210.4581,7.85,12.89,47.84626,-54.09684
2017-11-17 05:40:00+00:00,215.0465,7.88,12.89,47.84626,-54.09684
2017-11-17 05:50:00+00:00,221.8914,7.87,12.89,47.84626,-54.09684
2017-11-17 06:00:00+00:00,228.7414,7.9,12.89,47.84626,-54.09684
2017-11-17 06:10:00+00:00,231.2131,7.9,12.81,47.84626,-54.09684
2017-11-17 06:20:00+00:00,232.9714,7.9,12.89,47.84626,-54.09684
2017-11-17 06:30:00+00:00,239.7765,7.9,12.89,47.84626,-54.09684
2017-11-17 06:40:00+00:00,248.9314,7.9,12.89,47.84626,-54.09684
2017-11-17 06:50:00+00:00,255.2564,7.91,12.89,47.84626,-54.09684
2017-11-17 07:00:00+00:00,260.4414,7.9,12.81,47.84626,-54.09684
2017-11-17 07:10:00+00:00,270.6881,7.9,12.81,47.84626,-54.09684
2017-11-17 07:20:00+00:00,281.4199,7.95,12.89,47.84626,-54.09684
2017-11-17 07:30:00+00:00,278.5447,7.77,12.89,47.84626,-54.09684
2017-11-17 07:40:00+00:00,274.9865,7.78,12.89,47.84626,-54.09684
2017-11-17 07:50:00+00:00,285.3813,7.94,12.89,47.84626,-54.09684
2017-11-17 08:00:00+00:00,294.6831,7.98,12.81,47.84626,-54.09684
2017-11-17 08:10:00+00:00,292.988,7.8,12.73,47.84626,-54.09684
2017-11-17 08:20:00+00:00,300.638,7.87,12.81,47.84626,-54.09684
2017-11-17 08:30:00+00:00,318.7596,7.9,12.81,47.84626,-54.09684
2017-11-17 08:40:00+00:00,332.2829,7.9,12.89,47.84626,-54.09684
2017-11-17 08:50:00+00:00,331.6947,7.8,12.89,47.84626,-54.09684
2017-11-17 09:00:00+00:00,330.0681,7.9,12.81,47.84626,-54.09684
2017-11-17 09:10:00+00:00,337.3746,7.9,12.73,47.84626,-54.09684
2017-11-17 09:20:00+00:00,342.6829,7.9,12.81,47.84626,-54.09684
2017-11-17 09:30:00+00:00,350.223,7.91,12.81,47.84626,-54.09684
2017-11-17 09:40:00+00:00,361.8263,7.93,12.81,47.84626,-54.09684
2017-11-17 09:50:00+00:00,366.4813,7.98,12.81,47.84626,-54.09684
2017-11-17 10:00:00+00:00,365.0247,7.93,12.81,47.84626,-54.09684
2017-11-17 10:10:00+00:00,362.6695,7.97,12.73,47.84626,-54.09684
2017-11-17 10:20:00+00:00,369.0329,7.98,12.81,47.84626,-54.09684
2017-11-17 10:30:00+00:00,368.5396,7.99,12.81,47.84626,-54.09684
2017-11-17 10:40:00+00:00,366.6712,8.0,12.81,47.84626,-54.09684
2017-11-17 10:50:00+00:00,368.7879,8.0,12.81,47.84626,-54.09684
2017-11-17 11:00:00+00:00,367.1778,8.0,12.81,47.84626,-54.09684
2017-11-17 11:10:00+00:00,368.3796,8.0,12.73,47.84626,-54.09684
2017-11-17 11:20:00+00:00,366.9363,8.0,12.81,47.84626,-54.09684
2017-11-17 11:30:00+00:00,368.5563,8.0,12.81,47.84626,-54.09684
2017-11-17 11:40:00+00:00,368.8464,8.0,12.81,47.84626,-54.09684
2017-11-17 11:50:00+00:00,365.1845,8.0,12.81,47.84626,-54.09684
2017-11-17 12:00:00+00:00,366.793,8.0,12.81,47.84626,-54.09684
2017-11-17 12:10:00+00:00,360.8511,8.0,12.73,47.84626,-54.09684
2017-11-17 12:20:00+00:00,355.5397,8.0,12.81,47.84626,-54.09684
2017-11-17 12:30:00+00:00,354.3946,8.0,12.89,47.84626,-54.09684
2017-11-17 12:40:00+00:00,357.2829,8.0,12.89,47.84626,-54.09684
2017-11-17 12:50:00+00:00,348.9045,8.0,12.97,47.84626,-54.09684
2017-11-17 13:00:00+00:00,341.343,7.8,12.97,47.84626,-54.09684
2017-11-17 13:10:00+00:00,336.7495,7.78,12.89,47.84626,-54.09684
2017-11-17 13:20:00+00:00,328.808,7.8,13.05,47.84626,-54.09684
2017-11-17 13:30:00+00:00,317.2714,7.7,13.21,47.84626,-54.09684
2017-11-17 13:40:00+00:00,307.8581,7.67,13.21,47.84626,-54.09684
2017-11-17 13:50:00+00:00,300.9564,7.61,13.29,47.84626,-54.09684
2017-11-17 14:00:00+00:00,288.7496,7.61,13.29,47.84626,-54.09684
2017-11-17 14:10:00+00:00,278.483,7.6,13.29,47.84626,-54.09684
2017-11-17 14:20:00+00:00,272.9064,7.6,13.68,47.84626,-54.09684
2017-11-17 14:30:00+00:00,266.5414,7.63,13.92,47.84626,-54.09684
2017-11-17 14:40:00+00:00,253.8314,7.6,13.68,47.84626,-54.09684
2017-11-17 14:50:00+00:00,247.4981,7.64,13.44,47.84626,-54.09684
2017-11-17 15:00:00+00:00,247.3648,7.6,14.0,47.84626,-54.09684
2017-11-17 15:10:00+00:00,241.0614,7.6,14.0,47.84626,-54.09684
2017-11-17 15:20:00+00:00,226.4998,7.5,14.08,47.84626,-54.09684
2017-11-17 15:30:00+00:00,216.5815,7.31,14.08,47.84626,-54.09684
2017-11-17 15:40:00+00:00,213.0731,7.3,14.16,47.84626,-54.09684
2017-11-17 15:50:00+00:00,205.9664,7.33,14.08,47.84626,-54.09684
2017-11-17 16:00:00+00:00,197.1014,7.39,13.92,47.84626,-54.09684
2017-11-17 16:10:00+00:00,194.3648,7.46,13.68,47.84626,-54.09684
2017-11-17 16:20:00+00:00,196.1415,7.5,13.68,47.84626,-54.09684
2017-11-17 16:30:00+00:00,196.1364,7.5,13.6,47.84626,-54.09684
2017-11-17 16:40:00+00:00,198.7148,7.57,13.53,47.84626,-54.09684
2017-11-17 16:50:00+00:00,205.3715,7.57,13.44,47.84626,-54.09684
2017-11-17 17:00:00+00:00,201.9664,7.6,13.37,47.84626,-54.09684
2017-11-17 17:10:00+00:00,198.7665,7.6,13.29,47.84626,-54.09684
2017-11-17 17:20:00+00:00,205.4316,7.6,13.29,47.84626,-54.09684
2017-11-17 17:30:00+00:00,204.5464,7.6,13.29,47.84626,-54.09684
2017-11-17 17:40:00+00:00,199.5248,7.64,13.29,47.84626,-54.09684
2017-11-17 17:50:00+00:00,206.3264,7.7,13.29,47.84626,-54.09684
2017-11-17 18:00:00+00:00,211.0314,7.7,13.21,47.84626,-54.09684
2017-11-17 18:10:00+00:00,220.6514,7.7,13.05,47.84626,-54.09684
2017-11-17 18:20:00+00:00,233.5664,7.7,13.13,47.84626,-54.09684
2017-11-17 18:30:00+00:00,237.3914,7.7,13.13,47.84626,-54.09684
2017-11-17 18:40:00+00:00,234.5348,7.7,13.13,47.84626,-54.09684
2017-11-17 18:50:00+00:00,242.7731,7.67,13.13,47.84626,-54.09684
2017-11-17 19:00:00+00:00,253.5098,7.69,13.05,47.84626,-54.09684
2017-11-17 19:10:00+00:00,252.4498,7.7,12.97,47.84626,-54.09684
2017-11-17 19:20:00+00:00,255.6198,7.66,13.05,47.84626,-54.09684
2017-11-17 19:30:00+00:00,261.3464,7.64,13.05,47.84626,-54.09684
2017-11-17 19:40:00+00:00,261.4264,7.64,13.05,47.84626,-54.09684
2017-11-17 19:50:00+00:00,255.3515,7.6,13.05,47.84626,-54.09684
2017-11-17 20:00:00+00:00,262.1331,7.6,12.97,47.84626,-54.09684
2017-11-17 20:10:00+00:00,273.1647,7.62,12.97,47.84626,-54.09684
2017-11-17 20:20:00+00:00,280.0599,7.68,13.05,47.84626,-54.09684
2017-11-17 20:30:00+00:00,278.7913,7.66,13.05,47.84626,-54.09684
2017-11-17 20:40:00+00:00,287.6914,7.6,13.05,47.84626,-54.09684
2017-11-17 20:50:00+00:00,297.6413,7.61,13.05,47.84626,-54.09684
2017-11-17 21:00:00+00:00,303.6447,7.65,12.97,47.84626,-54.09684
2017-11-17 21:10:00+00:00,307.8947,7.64,12.89,47.84626,-54.09684
2017-11-17 21:20:00+00:00,321.0945,7.66,12.97,47.84626,-54.09684
2017-11-17 21:30:00+00:00,328.123,7.68,12.97,47.84626,-54.09684
2017-11-17 21:40:00+00:00,334.7081,7.68,12.97,47.84626,-54.09684
2017-11-17 21:50:00+00:00,339.1129,7.7,12.97,47.84626,-54.09684
2017-11-17 22:00:00+00:00,350.6146,7.7,12.97,47.84626,-54.09684
2017-11-17 22:10:00+00:00,353.6746,7.7,12.89,47.84626,-54.09684
2017-11-17 22:20:00+00:00,361.8612,7.67,12.97,47.84626,-54.09684
2017-11-17 22:30:00+00:00,365.4913,7.68,12.97,47.84626,-54.09684
2017-11-17 22:40:00+00:00,374.7012,7.67,12.97,47.84626,-54.09684
2017-11-17 22:50:00+00:00,372.2762,7.65,12.97,47.84626,-54.09684
2017-11-17 23:00:00+00:00,367.0747,7.6,12.89,47.84626,-54.09684
2017-11-17 23:10:00+00:00,371.1497,7.6,12.81,47.84626,-54.09684
2017-11-17 23:20:00+00:00,383.148,7.6,12.89,47.84626,-54.09684
2017-11-17 23:30:00+00:00,380.0829,7.59,12.89,47.84626,-54.09684
2017-11-17 23:40:00+00:00,369.6196,7.5,12.97,47.84626,-54.09684
2017-11-17 23:50:00+00:00,370.2996,7.5,12.97,47.84626,-54.09684
